owner,sensor,date,latitude,longitude,vertical_datum,direction_of_sea_water_velocity,sea_water_speed,upward_sea_water_velocity,qcFlag 
TABS,ioos:station:wmo:42051:1,2008-10-01T00:00:00Z,29.6350,-93.6417,2.0,208.2108585,13.85592292,-99999.0,'11111222,11111222,99999999' 
TABS,ioos:station:wmo:42051:1,2008-10-01T00:30:00Z,29.6350,-93.6417,2.0,198.6805978,14.73634962,-99999.0,'11111222,11111222,99999999' 
TABS,ioos:station:wmo:42051:1,2008-10-01T01:00:00Z,29.6350,-93.6417,2.0,193.5035682,19.31394574,-99999.0,'11111222,11111222,99999999' 
TABS,ioos:station:wmo:42051:1,2008-10-01T01:30:00Z,29.6350,-93.6417,2.0,198.1887927,22.10452442,-99999.0,'11111222,11111222,99999999' 
TABS,ioos:station:wmo:42051:1,2008-10-01T02:00:00Z,29.6350,-93.6417,2.0,197.4524189,25.64035296,-99999.0,'11111222,11111222,99999999' 
TABS,ioos:station:wmo:42051:1,2008-10-01T02:30:00Z,29.6350,-93.6417,2.0,197.6865305,29.78803283,-99999.0,'11111222,11111222,99999999' 
TABS,ioos:station:wmo:42051:1,2008-10-01T03:00:00Z,29.6350,-93.6417,2.0,200.2954682,31.94319959,-99999.0,'11111222,11111222,99999999' 
TABS,ioos:station:wmo:42051:1,2008-10-01T03:30:00Z,29.6350,-93.6417,2.0,203.8366971,34.29542972,-99999.0,'11111222,11111222,99999999' 
TABS,ioos:station:wmo:42051:1,2008-10-01T04:00:00Z,29.6350,-93.6417,2.0,205.1231023,36.08367082,-99999.0,'11111222,11111222,99999999' 
TABS,ioos:station:wmo:42051:1,2008-10-01T04:30:00Z,29.6350,-93.6417,2.0,211.548562,37.11594401,-99999.0,'11111222,11111222,99999999' 
TABS,ioos:station:wmo:42051:1,2008-10-01T05:00:00Z,29.6350,-93.6417,2.0,213.6016743,39.68052545,-99999.0,'11111222,11111222,99999999' 
TABS,ioos:station:wmo:42051:1,2008-10-01T05:30:00Z,29.6350,-93.6417,2.0,218.4404884,38.81258688,-99999.0,'11111222,11111222,99999999' 
TABS,ioos:station:wmo:42051:1,2008-10-01T06:00:00Z,29.6350,-93.6417,2.0,222.8320724,37.39027681,-99999.0,'11111222,11111222,99999999' 
TABS,ioos:station:wmo:42051:1,2008-10-01T06:30:00Z,29.6350,-93.6417,2.0,224.6576248,37.90159891,-99999.0,'11111222,11111222,99999999' 
TABS,ioos:station:wmo:42051:1,2008-10-01T07:00:00Z,29.6350,-93.6417,2.0,226.185206,42.37890985,-99999.0,'11111222,11111222,99999999' 
TABS,ioos:station:wmo:42051:1,2008-10-01T07:30:00Z,29.6350,-93.6417,2.0,229.4641025,41.60511988,-99999.0,'11111222,11111222,99999999' 
TABS,ioos:station:wmo:42051:1,2008-10-01T08:00:00Z,29.6350,-93.6417,2.0,232.8470701,42.15651314,-99999.0,'11111222,11111222,99999999' 
TABS,ioos:station:wmo:42051:1,2008-10-01T08:30:00Z,29.6350,-93.6417,2.0,239.9392527,41.44435426,-99999.0,'11111222,11111222,99999999' 
TABS,ioos:station:wmo:42051:1,2008-10-01T09:00:00Z,29.6350,-93.6417,2.0,242.0557488,40.8871618,-99999.0,'11111222,11111222,99999999' 
TABS,ioos:station:wmo:42051:1,2008-10-01T09:30:00Z,29.6350,-93.6417,2.0,246.4994426,42.15651432,-99999.0,'11111222,11111222,99999999' 
TABS,ioos:station:wmo:42051:1,2008-10-01T10:00:00Z,29.6350,-93.6417,2.0,252.3958561,42.29042681,-99999.0,'11111222,11111222,99999999' 
TABS,ioos:station:wmo:42051:1,2008-10-01T10:30:00Z,29.6350,-93.6417,2.0,256.1819983,38.77202729,-99999.0,'11111222,11111222,99999999' 
TABS,ioos:station:wmo:42051:1,2008-10-01T11:00:00Z,29.6350,-93.6417,2.0,260.7885741,40.481996,-99999.0,'11111222,11111222,99999999' 
TABS,ioos:station:wmo:42051:1,2008-10-01T11:30:00Z,29.6350,-93.6417,2.0,265.0310996,39.71924596,-99999.0,'11111222,11111222,99999999' 
TABS,ioos:station:wmo:42051:1,2008-10-01T12:00:00Z,29.6350,-93.6417,2.0,269.8763959,37.210086,-99999.0,'11111222,11111222,99999999' 
TABS,ioos:station:wmo:42051:1,2008-10-01T12:30:00Z,29.6350,-93.6417,2.0,274.5622182,37.71949098,-99999.0,'11111222,11111222,99999999' 
TABS,ioos:station:wmo:42051:1,2008-10-01T13:00:00Z,29.6350,-93.6417,2.0,274.4865864,35.6692823,-99999.0,'11111222,11111222,99999999' 
TABS,ioos:station:wmo:42051:1,2008-10-01T13:30:00Z,29.6350,-93.6417,2.0,270.032682,35.52000563,-99999.0,'11111222,11111222,99999999' 
TABS,ioos:station:wmo:42051:1,2008-10-01T14:00:00Z,29.6350,-93.6417,2.0,272.4034497,37.68313814,-99999.0,'11111222,11111222,99999999' 
TABS,ioos:station:wmo:42051:1,2008-10-01T14:30:00Z,29.6350,-93.6417,2.0,279.8943185,34.91933562,-99999.0,'11111222,11111222,99999999' 
TABS,ioos:station:wmo:42051:1,2008-10-01T15:00:00Z,29.6350,-93.6417,2.0,275.6764465,36.29796826,-99999.0,'11111222,11111222,99999999' 
TABS,ioos:station:wmo:42051:1,2008-10-01T15:30:00Z,29.6350,-93.6417,2.0,277.7506245,36.26123274,-99999.0,'11111222,11111222,99999999' 
TABS,ioos:station:wmo:42051:1,2008-10-01T16:00:00Z,29.6350,-93.6417,2.0,285.2794529,35.67082982,-99999.0,'11111222,11111222,99999999' 
TABS,ioos:station:wmo:42051:1,2008-10-01T16:30:00Z,29.6350,-93.6417,2.0,284.660348,34.53426849,-99999.0,'11111222,11111222,99999999' 
TABS,ioos:station:wmo:42051:1,2008-10-01T17:00:00Z,29.6350,-93.6417,2.0,285.1804337,35.47790439,-99999.0,'11111222,11111222,99999999' 
TABS,ioos:station:wmo:42051:1,2008-10-01T17:30:00Z,29.6350,-93.6417,2.0,283.6986195,35.76735103,-99999.0,'11111222,11111222,99999999' 
TABS,ioos:station:wmo:42051:1,2008-10-01T18:00:00Z,29.6350,-93.6417,2.0,287.0496181,35.43736023,-99999.0,'11111222,11111222,99999999' 
TABS,ioos:station:wmo:42051:1,2008-10-01T18:30:00Z,29.6350,-93.6417,2.0,285.0424043,35.37199457,-99999.0,'11111222,11111222,99999999' 
TABS,ioos:station:wmo:42051:1,2008-10-01T19:00:00Z,29.6350,-93.6417,2.0,287.488633,29.28352609,-99999.0,'11111222,11111222,99999999' 
TABS,ioos:station:wmo:42051:1,2008-10-01T19:30:00Z,29.6350,-93.6417,2.0,294.0459909,28.68965144,-99999.0,'11111222,11111222,99999999' 
TABS,ioos:station:wmo:42051:1,2008-10-01T20:00:00Z,29.6350,-93.6417,2.0,294.0411816,25.99491681,-99999.0,'11111222,11111222,99999999' 
TABS,ioos:station:wmo:42051:1,2008-10-01T20:30:00Z,29.6350,-93.6417,2.0,300.9081132,24.56889904,-99999.0,'11111222,11111222,99999999' 
TABS,ioos:station:wmo:42051:1,2008-10-01T21:00:00Z,29.6350,-93.6417,2.0,294.7019233,23.92963853,-99999.0,'11111222,11111222,99999999' 
TABS,ioos:station:wmo:42051:1,2008-10-01T21:30:00Z,29.6350,-93.6417,2.0,292.6776249,21.50231848,-99999.0,'11111222,11111222,99999999' 
TABS,ioos:station:wmo:42051:1,2008-10-01T22:00:00Z,29.6350,-93.6417,2.0,289.602331,20.80577804,-99999.0,'11111222,11111222,99999999' 
TABS,ioos:station:wmo:42051:1,2008-10-01T22:30:00Z,29.6350,-93.6417,2.0,275.0976228,14.40697401,-99999.0,'11111222,11111222,99999999' 
TABS,ioos:station:wmo:42051:1,2008-10-01T23:00:00Z,29.6350,-93.6417,2.0,264.6499682,14.37260241,-99999.0,'11111222,11111222,99999999' 
TABS,ioos:station:wmo:42051:1,2008-10-01T23:30:00Z,29.6350,-93.6417,2.0,243.2239452,18.24643801,-99999.0,'11111222,11111222,99999999' 
TABS,ioos:station:wmo:42051:1,2008-10-02T00:00:00Z,29.6350,-93.6417,2.0,228.3917604,24.14049295,-99999.0,'11111222,11111222,99999999' 
TABS,ioos:station:wmo:42051:1,2008-10-02T00:30:00Z,29.6350,-93.6417,2.0,223.5550669,27.48690597,-99999.0,'11111222,11111222,99999999' 
TABS,ioos:station:wmo:42051:1,2008-10-02T01:00:00Z,29.6350,-93.6417,2.0,223.722249,32.66938169,-99999.0,'11111222,11111222,99999999' 
TABS,ioos:station:wmo:42051:1,2008-10-02T01:30:00Z,29.6350,-93.6417,2.0,227.1974792,32.45178886,-99999.0,'11111222,11111222,99999999' 
TABS,ioos:station:wmo:42051:1,2008-10-02T02:00:00Z,29.6350,-93.6417,2.0,224.4349043,32.28099286,-99999.0,'11111222,11111222,99999999' 
TABS,ioos:station:wmo:42051:1,2008-10-02T02:30:00Z,29.6350,-93.6417,2.0,222.1904378,35.78017608,-99999.0,'11111222,11111222,99999999' 
TABS,ioos:station:wmo:42051:1,2008-10-02T03:00:00Z,29.6350,-93.6417,2.0,224.7022476,36.77711925,-99999.0,'11111222,11111222,99999999' 
TABS,ioos:station:wmo:42051:1,2008-10-02T03:30:00Z,29.6350,-93.6417,2.0,225.8860441,35.19691606,-99999.0,'11111222,11111222,99999999' 
TABS,ioos:station:wmo:42051:1,2008-10-02T04:00:00Z,29.6350,-93.6417,2.0,228.4503334,32.77725583,-99999.0,'11111222,11111222,99999999' 
TABS,ioos:station:wmo:42051:1,2008-10-02T04:30:00Z,29.6350,-93.6417,2.0,233.4830589,33.40863511,-99999.0,'11111222,11111222,99999999' 
TABS,ioos:station:wmo:42051:1,2008-10-02T05:00:00Z,29.6350,-93.6417,2.0,235.1418443,34.97556433,-99999.0,'11111222,11111222,99999999' 
TABS,ioos:station:wmo:42051:1,2008-10-02T05:30:00Z,29.6350,-93.6417,2.0,235.199754,34.93879935,-99999.0,'11111222,11111222,99999999' 
TABS,ioos:station:wmo:42051:1,2008-10-02T06:00:00Z,29.6350,-93.6417,2.0,239.377232,31.6660607,-99999.0,'11111222,11111222,99999999' 
TABS,ioos:station:wmo:42051:1,2008-10-02T06:30:00Z,29.6350,-93.6417,2.0,245.4876479,33.45516403,-99999.0,'11111222,11111222,99999999' 
TABS,ioos:station:wmo:42051:1,2008-10-02T07:00:00Z,29.6350,-93.6417,2.0,252.4876781,33.76485747,-99999.0,'11111222,11111222,99999999' 
TABS,ioos:station:wmo:42051:1,2008-10-02T07:30:00Z,29.6350,-93.6417,2.0,256.8214938,36.27527119,-99999.0,'11111222,11111222,99999999' 
TABS,ioos:station:wmo:42051:1,2008-10-02T08:00:00Z,29.6350,-93.6417,2.0,262.999459,35.28300441,-99999.0,'11111222,11111222,99999999' 
TABS,ioos:station:wmo:42051:1,2008-10-02T08:30:00Z,29.6350,-93.6417,2.0,265.8710182,36.11371485,-99999.0,'11111222,11111222,99999999' 
TABS,ioos:station:wmo:42051:1,2008-10-02T09:00:00Z,29.6350,-93.6417,2.0,265.0744747,39.48579112,-99999.0,'11111222,11111222,99999999' 
TABS,ioos:station:wmo:42051:1,2008-10-02T09:30:00Z,29.6350,-93.6417,2.0,269.1786127,39.08401208,-99999.0,'11111222,11111222,99999999' 
TABS,ioos:station:wmo:42051:1,2008-10-02T10:00:00Z,29.6350,-93.6417,2.0,271.7935142,39.30924828,-99999.0,'11111222,11111222,99999999' 
TABS,ioos:station:wmo:42051:1,2008-10-02T10:30:00Z,29.6350,-93.6417,2.0,274.2261251,39.62772767,-99999.0,'11111222,11111222,99999999' 
TABS,ioos:station:wmo:42051:1,2008-10-02T11:00:00Z,29.6350,-93.6417,2.0,272.1798401,41.81024396,-99999.0,'11111222,11111222,99999999' 
TABS,ioos:station:wmo:42051:1,2008-10-02T11:30:00Z,29.6350,-93.6417,2.0,275.7008367,39.26416814,-99999.0,'11111222,11111222,99999999' 
TABS,ioos:station:wmo:42051:1,2008-10-02T12:00:00Z,29.6350,-93.6417,2.0,274.2025832,39.57639322,-99999.0,'11111222,11111222,99999999' 
TABS,ioos:station:wmo:42051:1,2008-10-02T12:30:00Z,29.6350,-93.6417,2.0,277.6249611,36.70451335,-99999.0,'11111222,11111222,99999999' 
TABS,ioos:station:wmo:42051:1,2008-10-02T13:00:00Z,29.6350,-93.6417,2.0,277.3417346,33.18200868,-99999.0,'11111222,11111222,99999999' 
TABS,ioos:station:wmo:42051:1,2008-10-02T13:30:00Z,29.6350,-93.6417,2.0,277.3874769,30.64434206,-99999.0,'11111222,11111222,99999999' 
TABS,ioos:station:wmo:42051:1,2008-10-02T14:00:00Z,29.6350,-93.6417,2.0,278.2157134,32.33178622,-99999.0,'11111222,11111222,99999999' 
TABS,ioos:station:wmo:42051:1,2008-10-02T14:30:00Z,29.6350,-93.6417,2.0,278.7169106,27.91238077,-99999.0,'11111222,11111222,99999999' 
TABS,ioos:station:wmo:42051:1,2008-10-02T15:00:00Z,29.6350,-93.6417,2.0,279.3368757,26.19704182,-99999.0,'11111222,11111222,99999999' 
TABS,ioos:station:wmo:42051:1,2008-10-02T15:30:00Z,29.6350,-93.6417,2.0,285.5025388,20.95223377,-99999.0,'11111222,11111222,99999999' 
TABS,ioos:station:wmo:42051:1,2008-10-02T16:00:00Z,29.6350,-93.6417,2.0,285.2858002,18.24544053,-99999.0,'11111222,11111222,99999999' 
TABS,ioos:station:wmo:42051:1,2008-10-02T16:30:00Z,29.6350,-93.6417,2.0,288.3027492,16.39961585,-99999.0,'11111222,11111222,99999999' 
TABS,ioos:station:wmo:42051:1,2008-10-02T17:00:00Z,29.6350,-93.6417,2.0,274.0922924,13.03322293,-99999.0,'11111222,11111222,99999999' 
TABS,ioos:station:wmo:42051:1,2008-10-02T17:30:00Z,29.6350,-93.6417,2.0,285.921247,12.83222506,-99999.0,'11111222,11111222,99999999' 
TABS,ioos:station:wmo:42051:1,2008-10-02T18:00:00Z,29.6350,-93.6417,2.0,279.368655,10.01355581,-99999.0,'11111222,11111222,99999999' 
TABS,ioos:station:wmo:42051:1,2008-10-02T18:30:00Z,29.6350,-93.6417,2.0,268.6119166,13.21387528,-99999.0,'11111222,11111222,99999999' 
TABS,ioos:station:wmo:42051:1,2008-10-02T19:00:00Z,29.6350,-93.6417,2.0,265.1702802,14.49144575,-99999.0,'11111222,11111222,99999999' 
TABS,ioos:station:wmo:42051:1,2008-10-02T19:30:00Z,29.6350,-93.6417,2.0,253.3519219,14.90474086,-99999.0,'11111222,11111222,99999999' 
TABS,ioos:station:wmo:42051:1,2008-10-02T20:00:00Z,29.6350,-93.6417,2.0,258.5844406,16.01683177,-99999.0,'11111222,11111222,99999999' 
TABS,ioos:station:wmo:42051:1,2008-10-02T20:30:00Z,29.6350,-93.6417,2.0,252.6850997,17.30412956,-99999.0,'11111222,11111222,99999999' 
TABS,ioos:station:wmo:42051:1,2008-10-02T21:00:00Z,29.6350,-93.6417,2.0,242.0722869,18.81064858,-99999.0,'11111222,11111222,99999999' 
TABS,ioos:station:wmo:42051:1,2008-10-02T21:30:00Z,29.6350,-93.6417,2.0,250.1918379,21.77853301,-99999.0,'11111222,11111222,99999999' 
TABS,ioos:station:wmo:42051:1,2008-10-02T22:00:00Z,29.6350,-93.6417,2.0,244.0723631,24.10630623,-99999.0,'11111222,11111222,99999999' 
TABS,ioos:station:wmo:42051:1,2008-10-02T22:30:00Z,29.6350,-93.6417,2.0,247.0313655,21.88501999,-99999.0,'11111222,11111222,99999999' 
TABS,ioos:station:wmo:42051:1,2008-10-02T23:00:00Z,29.6350,-93.6417,2.0,240.9371845,21.24493587,-99999.0,'11111222,11111222,99999999' 
TABS,ioos:station:wmo:42051:1,2008-10-02T23:30:00Z,29.6350,-93.6417,2.0,230.7531287,22.57141555,-99999.0,'11111222,11111222,99999999' 
TABS,ioos:station:wmo:42051:1,2008-10-03T00:00:00Z,29.6350,-93.6417,2.0,232.5643372,24.11717438,-99999.0,'11111222,11111222,99999999' 
TABS,ioos:station:wmo:42051:1,2008-10-03T00:30:00Z,29.6350,-93.6417,2.0,233.1439101,24.30800074,-99999.0,'11111222,11111222,99999999' 
TABS,ioos:station:wmo:42051:1,2008-10-03T01:00:00Z,29.6350,-93.6417,2.0,233.0074363,20.60804697,-99999.0,'11111222,11111222,99999999' 
TABS,ioos:station:wmo:42051:1,2008-10-03T01:30:00Z,29.6350,-93.6417,2.0,229.1366244,21.36787308,-99999.0,'11111222,11111222,99999999' 
TABS,ioos:station:wmo:42051:1,2008-10-03T02:00:00Z,29.6350,-93.6417,2.0,221.8842121,19.9061925,-99999.0,'11111222,11111222,99999999' 
TABS,ioos:station:wmo:42051:1,2008-10-03T02:30:00Z,29.6350,-93.6417,2.0,224.6619929,17.99618015,-99999.0,'11111222,11111222,99999999' 
TABS,ioos:station:wmo:42051:1,2008-10-03T03:00:00Z,29.6350,-93.6417,2.0,235.875281,13.90395987,-99999.0,'11111222,11111222,99999999' 
TABS,ioos:station:wmo:42051:1,2008-10-03T03:30:00Z,29.6350,-93.6417,2.0,228.422913,10.89474185,-99999.0,'11111222,11111222,99999999' 
TABS,ioos:station:wmo:42051:1,2008-10-03T04:00:00Z,29.6350,-93.6417,2.0,244.0616035,9.807981444,-99999.0,'11133222,11111222,99999999' 
TABS,ioos:station:wmo:42051:1,2008-10-03T04:30:00Z,29.6350,-93.6417,2.0,265.7631942,8.934411005,-99999.0,'11133222,11111222,99999999' 
TABS,ioos:station:wmo:42051:1,2008-10-03T05:00:00Z,29.6350,-93.6417,2.0,271.1600934,7.411518063,-99999.0,'11133222,11111222,99999999' 
TABS,ioos:station:wmo:42051:1,2008-10-03T05:30:00Z,29.6350,-93.6417,2.0,267.7969861,6.244613679,-99999.0,'11133222,11111222,99999999' 
TABS,ioos:station:wmo:42051:1,2008-10-03T06:00:00Z,29.6350,-93.6417,2.0,286.9865238,6.503722011,-99999.0,'11133222,11111222,99999999' 
TABS,ioos:station:wmo:42051:1,2008-10-03T06:30:00Z,29.6350,-93.6417,2.0,300.2305861,6.29622903,-99999.0,'11133222,11111222,99999999' 
TABS,ioos:station:wmo:42051:1,2008-10-03T07:00:00Z,29.6350,-93.6417,2.0,310.9388025,4.792076794,-99999.0,'11133222,11111222,99999999' 
TABS,ioos:station:wmo:42051:1,2008-10-03T07:30:00Z,29.6350,-93.6417,2.0,287.8385186,6.071902503,-99999.0,'11133222,11111222,99999999' 
TABS,ioos:station:wmo:42051:1,2008-10-03T08:00:00Z,29.6350,-93.6417,2.0,279.4750268,7.654417025,-99999.0,'11133222,11111222,99999999' 
TABS,ioos:station:wmo:42051:1,2008-10-03T08:30:00Z,29.6350,-93.6417,2.0,296.1509822,4.946311757,-99999.0,'11133222,11111222,99999999' 
TABS,ioos:station:wmo:42051:1,2008-10-03T09:00:00Z,29.6350,-93.6417,2.0,292.4192605,4.824645065,-99999.0,'11133222,11111222,99999999' 
TABS,ioos:station:wmo:42051:1,2008-10-03T09:30:00Z,29.6350,-93.6417,2.0,301.8554788,2.425283489,-99999.0,'11133222,11111222,99999999' 
TABS,ioos:station:wmo:42051:1,2008-10-03T10:00:00Z,29.6350,-93.6417,2.0,284.2285118,3.621077188,-99999.0,'11133222,11111222,99999999' 
TABS,ioos:station:wmo:42051:1,2008-10-03T10:30:00Z,29.6350,-93.6417,2.0,269.4006917,2.87015679,-99999.0,'11133222,11111222,99999999' 
TABS,ioos:station:wmo:42051:1,2008-10-03T11:00:00Z,29.6350,-93.6417,2.0,303.6904097,0.360555128,-99999.0,'11133222,11111222,99999999' 
TABS,ioos:station:wmo:42051:1,2008-10-03T11:30:00Z,29.6350,-93.6417,2.0,273.9186606,2.195130976,-99999.0,'11133222,11111222,99999999' 
TABS,ioos:station:wmo:42051:1,2008-10-03T12:00:00Z,29.6350,-93.6417,2.0,153.5414962,2.401541172,-99999.0,'11133222,11111222,99999999' 
TABS,ioos:station:wmo:42051:1,2008-10-03T12:30:00Z,29.6350,-93.6417,2.0,152.1243443,1.368831619,-99999.0,'11133222,11111222,99999999' 
TABS,ioos:station:wmo:42051:1,2008-10-03T13:00:00Z,29.6350,-93.6417,2.0,128.9274526,4.679016991,-99999.0,'11133222,11111222,99999999' 
TABS,ioos:station:wmo:42051:1,2008-10-03T13:30:00Z,29.6350,-93.6417,2.0,95.35131909,3.967291267,-99999.0,'11133222,11111222,99999999' 
TABS,ioos:station:wmo:42051:1,2008-10-03T14:00:00Z,29.6350,-93.6417,2.0,106.9635518,7.266147535,-99999.0,'11133222,11111222,99999999' 
TABS,ioos:station:wmo:42051:1,2008-10-03T14:30:00Z,29.6350,-93.6417,2.0,110.6330534,7.832400654,-99999.0,'11133222,11111222,99999999' 
TABS,ioos:station:wmo:42051:1,2008-10-03T15:00:00Z,29.6350,-93.6417,2.0,109.1311016,8.84870612,-99999.0,'11133222,11111222,99999999' 
TABS,ioos:station:wmo:42051:1,2008-10-03T15:30:00Z,29.6350,-93.6417,2.0,121.611012,10.47408707,-99999.0,'11111222,11111222,99999999' 
TABS,ioos:station:wmo:42051:1,2008-10-03T16:00:00Z,29.6350,-93.6417,2.0,116.3644802,10.2233654,-99999.0,'11111222,11111222,99999999' 
TABS,ioos:station:wmo:42051:1,2008-10-03T16:30:00Z,29.6350,-93.6417,2.0,112.8227117,10.20929478,-99999.0,'11111222,11111222,99999999' 
TABS,ioos:station:wmo:42051:1,2008-10-03T17:00:00Z,29.6350,-93.6417,2.0,127.4818744,10.48459823,-99999.0,'11111222,11111222,99999999' 
TABS,ioos:station:wmo:42051:1,2008-10-03T17:30:00Z,29.6350,-93.6417,2.0,141.7629844,8.886529131,-99999.0,'11133222,11111222,99999999' 
TABS,ioos:station:wmo:42051:1,2008-10-03T18:00:00Z,29.6350,-93.6417,2.0,139.0308436,12.67442306,-99999.0,'11111222,11111222,99999999' 
TABS,ioos:station:wmo:42051:1,2008-10-03T18:30:00Z,29.6350,-93.6417,2.0,154.1641613,10.18835119,-99999.0,'11111222,11111222,99999999' 
TABS,ioos:station:wmo:42051:1,2008-10-03T19:00:00Z,29.6350,-93.6417,2.0,166.5238094,10.17000492,-99999.0,'11111222,11111222,99999999' 
TABS,ioos:station:wmo:42051:1,2008-10-03T19:30:00Z,29.6350,-93.6417,2.0,149.6580796,8.215266277,-99999.0,'11133222,11111222,99999999' 
TABS,ioos:station:wmo:42051:1,2008-10-03T20:00:00Z,29.6350,-93.6417,2.0,170.9735578,7.776297319,-99999.0,'11133222,11111222,99999999' 
TABS,ioos:station:wmo:42051:1,2008-10-03T20:30:00Z,29.6350,-93.6417,2.0,118.5539359,11.33922396,-99999.0,'11111222,11111222,99999999' 
TABS,ioos:station:wmo:42051:1,2008-10-03T21:00:00Z,29.6350,-93.6417,2.0,194.4357308,5.214642845,-99999.0,'11133222,11111222,99999999' 
TABS,ioos:station:wmo:42051:1,2008-10-03T21:30:00Z,29.6350,-93.6417,2.0,230.9481314,5.253808143,-99999.0,'11133222,11111222,99999999' 
TABS,ioos:station:wmo:42051:1,2008-10-03T22:00:00Z,29.6350,-93.6417,2.0,228.1528399,7.584596232,-99999.0,'11133222,11111222,99999999' 
TABS,ioos:station:wmo:42051:1,2008-10-03T22:30:00Z,29.6350,-93.6417,2.0,244.3646324,6.887996806,-99999.0,'11133222,11111222,99999999' 
TABS,ioos:station:wmo:42051:1,2008-10-03T23:00:00Z,29.6350,-93.6417,2.0,262.6845598,7.853922587,-99999.0,'11133222,11111222,99999999' 
TABS,ioos:station:wmo:42051:1,2008-10-03T23:30:00Z,29.6350,-93.6417,2.0,272.1939024,9.667083324,-99999.0,'11133222,11111222,99999999' 
TABS,ioos:station:wmo:42051:1,2008-10-04T00:00:00Z,29.6350,-93.6417,2.0,294.0485402,8.14714674,-99999.0,'11133222,11111222,99999999' 
TABS,ioos:station:wmo:42051:1,2008-10-04T00:30:00Z,29.6350,-93.6417,2.0,275.9345725,8.415093582,-99999.0,'11133222,11111222,99999999' 
TABS,ioos:station:wmo:42051:1,2008-10-04T01:00:00Z,29.6350,-93.6417,2.0,294.9428245,8.370722788,-99999.0,'11133222,11111222,99999999' 
TABS,ioos:station:wmo:42051:1,2008-10-04T01:30:00Z,29.6350,-93.6417,2.0,297.4796246,8.408685985,-99999.0,'11133222,11111222,99999999' 
TABS,ioos:station:wmo:42051:1,2008-10-04T02:00:00Z,29.6350,-93.6417,2.0,293.4643885,9.920307455,-99999.0,'11133222,11111222,99999999' 
TABS,ioos:station:wmo:42051:1,2008-10-04T02:30:00Z,29.6350,-93.6417,2.0,294.6018921,10.83340205,-99999.0,'11111222,11111222,99999999' 
TABS,ioos:station:wmo:42051:1,2008-10-04T03:00:00Z,29.6350,-93.6417,2.0,308.2162061,9.876725166,-99999.0,'11133222,11111222,99999999' 
TABS,ioos:station:wmo:42051:1,2008-10-04T03:30:00Z,29.6350,-93.6417,2.0,336.5793406,6.767584503,-99999.0,'11133222,11111222,99999999' 
TABS,ioos:station:wmo:42051:1,2008-10-04T04:00:00Z,29.6350,-93.6417,2.0,346.5902403,9.098054737,-99999.0,'11133222,11111222,99999999' 
TABS,ioos:station:wmo:42051:1,2008-10-04T04:30:00Z,29.6350,-93.6417,2.0,359.7497393,9.150087431,-99999.0,'11133222,11144222,99999999' 
TABS,ioos:station:wmo:42051:1,2008-10-04T05:00:00Z,29.6350,-93.6417,2.0,2.252914938,9.667471231,-99999.0,'11133222,11111222,99999999' 
TABS,ioos:station:wmo:42051:1,2008-10-04T05:30:00Z,29.6350,-93.6417,2.0,19.33745985,11.44570225,-99999.0,'11111222,11111222,99999999' 
TABS,ioos:station:wmo:42051:1,2008-10-04T06:00:00Z,29.6350,-93.6417,2.0,15.61413418,10.9230948,-99999.0,'11111222,11111222,99999999' 
TABS,ioos:station:wmo:42051:1,2008-10-04T06:30:00Z,29.6350,-93.6417,2.0,18.52367197,12.27597654,-99999.0,'11111222,11111222,99999999' 
TABS,ioos:station:wmo:42051:1,2008-10-04T07:00:00Z,29.6350,-93.6417,2.0,42.13253296,11.73144919,-99999.0,'11111222,11111222,99999999' 
TABS,ioos:station:wmo:42051:1,2008-10-04T07:30:00Z,29.6350,-93.6417,2.0,42.93096898,10.96730596,-99999.0,'11111222,11111222,99999999' 
TABS,ioos:station:wmo:42051:1,2008-10-04T08:00:00Z,29.6350,-93.6417,2.0,52.9795843,12.17404206,-99999.0,'11111222,11111222,99999999' 
TABS,ioos:station:wmo:42051:1,2008-10-04T08:30:00Z,29.6350,-93.6417,2.0,71.79917757,13.15834716,-99999.0,'11111222,11111222,99999999' 
TABS,ioos:station:wmo:42051:1,2008-10-04T09:00:00Z,29.6350,-93.6417,2.0,71.29355298,16.681202,-99999.0,'11111222,11111222,99999999' 
TABS,ioos:station:wmo:42051:1,2008-10-04T09:30:00Z,29.6350,-93.6417,2.0,64.5460014,21.21980207,-99999.0,'11111222,11111222,99999999' 
TABS,ioos:station:wmo:42051:1,2008-10-04T10:00:00Z,29.6350,-93.6417,2.0,76.73236552,22.96291358,-99999.0,'11111222,11111222,99999999' 
TABS,ioos:station:wmo:42051:1,2008-10-04T10:30:00Z,29.6350,-93.6417,2.0,77.56152198,23.39923289,-99999.0,'11111222,11111222,99999999' 
TABS,ioos:station:wmo:42051:1,2008-10-04T11:00:00Z,29.6350,-93.6417,2.0,89.50287021,23.05086766,-99999.0,'11111222,11111222,99999999' 
TABS,ioos:station:wmo:42051:1,2008-10-04T11:30:00Z,29.6350,-93.6417,2.0,88.99177242,25.57395941,-99999.0,'11111222,11111222,99999999' 
TABS,ioos:station:wmo:42051:1,2008-10-04T12:00:00Z,29.6350,-93.6417,2.0,94.93071917,29.90065217,-99999.0,'11111222,11111222,99999999' 
TABS,ioos:station:wmo:42051:1,2008-10-04T12:30:00Z,29.6350,-93.6417,2.0,104.6716511,30.83545038,-99999.0,'11111222,11111222,99999999' 
TABS,ioos:station:wmo:42051:1,2008-10-04T13:00:00Z,29.6350,-93.6417,2.0,106.2186456,33.1180087,-99999.0,'11111222,11111222,99999999' 
TABS,ioos:station:wmo:42051:1,2008-10-04T13:30:00Z,29.6350,-93.6417,2.0,105.4750839,33.8055735,-99999.0,'11111222,11111222,99999999' 
TABS,ioos:station:wmo:42051:1,2008-10-04T14:00:00Z,29.6350,-93.6417,2.0,105.7443918,35.63704393,-99999.0,'11111222,11111222,99999999' 
TABS,ioos:station:wmo:42051:1,2008-10-04T14:30:00Z,29.6350,-93.6417,2.0,106.6913943,35.13019499,-99999.0,'11111222,11111222,99999999' 
TABS,ioos:station:wmo:42051:1,2008-10-04T15:00:00Z,29.6350,-93.6417,2.0,106.6491303,32.87835762,-99999.0,'11111222,11111222,99999999' 
TABS,ioos:station:wmo:42051:1,2008-10-04T15:30:00Z,29.6350,-93.6417,2.0,105.5329484,31.10610551,-99999.0,'11111222,11111222,99999999' 
TABS,ioos:station:wmo:42051:1,2008-10-04T16:00:00Z,29.6350,-93.6417,2.0,105.9401878,30.4404747,-99999.0,'11111222,11111222,99999999' 